When you browse on this site, cookies collect data to enhance your experience and personalize the content and advertising you see.
Visit our Privacy Policy to learn more. By continuing to use the site, you agree to this use of cookies and data.
  • In Hungary
  • List of Countries
  • For 7 days
  • Water Temperature
  • Satellite Maps
  • Weather Map
  • News
  • Weather Widgets
  • user-avatar
    Login

    Hourly Weather Huicheng

    Today, 12 December, Wednesday

    Time Temperature Precipitation Wind Pressure Humidity
    00:00 +14°C° 0 mm 6 mps 765 mmHg 63%
    01:00 +13°C° 0 mm 6 mps 765 mmHg 64%
    02:00 +13°C° 0 mm 6 mps 765 mmHg 64%
    03:00 +11°C° 0 mm 6 mps 765 mmHg 65%
    04:00 +11°C° 0 mm 6 mps 766 mmHg 65%
    05:00 +11°C° 0 mm 6 mps 766 mmHg 66%
    06:00 +11°C° 0 mm 6 mps 766 mmHg 66%
    07:00 +11°C° 0 mm 6 mps 767 mmHg 66%
    08:00 +11°C° 0 mm 6 mps 767 mmHg 66%
    09:00 +13°C° 0 mm 6 mps 767 mmHg 63%
    10:00 +14°C° 0 mm 6 mps 767 mmHg 60%
    11:00 +16°C° 0 mm 6 mps 768 mmHg 57%
    12:00 +17°C° 0 mm 6 mps 767 mmHg 56%
    13:00 +19°C° 0 mm 6 mps 767 mmHg 55%
    14:00 +20°C° 0 mm 6 mps 766 mmHg 54%
    15:00 +19°C° 0 mm 6 mps 766 mmHg 56%
    16:00 +19°C° 0 mm 6 mps 766 mmHg 58%
    17:00 +17°C° 0 mm 6 mps 766 mmHg 59%
    18:00 +16°C° 0 mm 6 mps 766 mmHg 60%
    19:00 +15°C° 0 mm 6 mps 766 mmHg 61%
    20:00 +14°C° 0 mm 6 mps 767 mmHg 62%
    21:00 +14°C° 0 mm 5 mps 767 mmHg 63%
    22:00 +13°C° 0 mm 5 mps 767 mmHg 64%
    23:00 +13°C° 0 mm 5 mps 767 mmHg 64%

    Tomorrow, 13 December, Thursday

    Time Temperature Precipitation Wind Pressure Humidity
    00:00 +12°C° 0 mm 5 mps 767 mmHg 65%
    01:00 +12°C° 0 mm 5 mps 767 mmHg 66%
    02:00 +12°C° 0 mm 5 mps 767 mmHg 67%
    03:00 +12°C° 0 mm 5 mps 767 mmHg 67%
    04:00 +12°C° 0 mm 5 mps 767 mmHg 67%
    05:00 +12°C° 0 mm 5 mps 766 mmHg 68%
    06:00 +12°C° 0 mm 5 mps 767 mmHg 67%
    07:00 +12°C° 0 mm 5 mps 767 mmHg 67%
    08:00 +13°C° 0 mm 5 mps 768 mmHg 66%
    09:00 +14°C° 0 mm 6 mps 768 mmHg 63%
    10:00 +15°C° 0 mm 6 mps 768 mmHg 60%
    11:00 +16°C° 0 mm 6 mps 768 mmHg 56%
    12:00 +19°C° 0 mm 6 mps 767 mmHg 54%
    13:00 +20°C° 0 mm 6 mps 767 mmHg 52%
    14:00 +21°C° 0 mm 6 mps 766 mmHg 50%
    15:00 +21°C° 0 mm 6 mps 766 mmHg 53%
    16:00 +20°C° 0 mm 6 mps 766 mmHg 56%
    17:00 +20°C° 0 mm 5 mps 765 mmHg 60%
    18:00 +19°C° 0 mm 5 mps 766 mmHg 63%
    19:00 +19°C° 0 mm 6 mps 766 mmHg 66%
    20:00 +17°C° 0 mm 6 mps 767 mmHg 69%
    21:00 +16°C° 0 mm 6 mps 767 mmHg 70%
    22:00 +16°C° 0 mm 6 mps 767 mmHg 71%
    23:00 +16°C° 0 mm 6 mps 767 mmHg 72%

    Day after tomorrow, 14 December, Friday

    Time Temperature Precipitation Wind Pressure Humidity
    00:00 +16°C° 0 mm 6 mps 767 mmHg 73%
    01:00 +15°C° 0 mm 6 mps 767 mmHg 73%
    02:00 +15°C° 0 mm 6 mps 766 mmHg 73%
    03:00 +15°C° 0 mm 6 mps 766 mmHg 74%
    04:00 +14°C° 0 mm 6 mps 766 mmHg 74%
    05:00 +14°C° 0 mm 6 mps 766 mmHg 74%
    06:00 +14°C° 0 mm 6 mps 767 mmHg 73%
    07:00 +15°C° 0 mm 6 mps 767 mmHg 73%
    08:00 +15°C° 0 mm 6 mps 768 mmHg 72%
    09:00 +16°C° 0 mm 6 mps 768 mmHg 68%
    10:00 +19°C° 0 mm 6 mps 768 mmHg 64%
    11:00 +20°C° 0 mm 7 mps 768 mmHg 60%
    12:00 +21°C° 0 mm 7 mps 767 mmHg 58%
    13:00 +22°C° 0 mm 7 mps 766 mmHg 57%
    14:00 +22°C° 0 mm 7 mps 766 mmHg 56%
    15:00 +22°C° 0 mm 7 mps 766 mmHg 59%
    16:00 +21°C° 0 mm 7 mps 765 mmHg 62%
    17:00 +21°C° 0 mm 6 mps 765 mmHg 65%
    18:00 +20°C° 0 mm 7 mps 766 mmHg 68%
    19:00 +20°C° 0 mm 7 mps 766 mmHg 71%
    20:00 +18°C° 0 mm 7 mps 767 mmHg 74%
    21:00 +18°C° 0 mm 7 mps 767 mmHg 75%
    22:00 +17°C° 0 mm 7 mps 767 mmHg 77%
    23:00 +17°C° 0 mm 7 mps 767 mmHg 78%

    15 December, Saturday

    Time Temperature Precipitation Wind Pressure Humidity
    00:00 +17°C° 0 mm 7 mps 767 mmHg 78%
    01:00 +17°C° 0 mm 7 mps 766 mmHg 78%
    02:00 +16°C° 0 mm 7 mps 766 mmHg 78%
    03:00 +16°C° 0 mm 7 mps 766 mmHg 78%
    04:00 +16°C° 0 mm 6 mps 766 mmHg 78%
    05:00 +16°C° 0 mm 6 mps 766 mmHg 78%
    06:00 +16°C° 0 mm 6 mps 766 mmHg 77%
    07:00 +16°C° 0 mm 6 mps 766 mmHg 76%
    08:00 +16°C° 0 mm 6 mps 767 mmHg 74%
    09:00 +19°C° 0 mm 6 mps 767 mmHg 69%
    10:00 +20°C° 0 mm 6 mps 767 mmHg 64%
    11:00 +21°C° 0 mm 6 mps 767 mmHg 59%
    12:00 +22°C° 0 mm 6 mps 766 mmHg 57%
    13:00 +23°C° 0 mm 6 mps 765 mmHg 55%
    14:00 +23°C° 0 mm 6 mps 765 mmHg 53%
    15:00 +23°C° 0 mm 6 mps 764 mmHg 57%
    16:00 +22°C° 0 mm 6 mps 764 mmHg 60%
    17:00 +22°C° 0 mm 6 mps 764 mmHg 63%
    18:00 +21°C° 0 mm 6 mps 764 mmHg 67%
    19:00 +20°C° 0 mm 6 mps 765 mmHg 71%
    20:00 +20°C° 0 mm 6 mps 765 mmHg 74%
    21:00 +19°C° 0 mm 6 mps 765 mmHg 76%
    22:00 +19°C° 0 mm 5 mps 765 mmHg 78%
    23:00 +19°C° 0 mm 5 mps 765 mmHg 79%

    16 December, Sunday

    Time Temperature Precipitation Wind Pressure Humidity
    00:00 +17°C° 0 mm 5 mps 765 mmHg 80%
    01:00 +17°C° 0 mm 5 mps 765 mmHg 81%
    02:00 +17°C° 0 mm 5 mps 765 mmHg 82%
    03:00 +17°C° 0 mm 5 mps 765 mmHg 81%
    04:00 +18°C° 0 mm 4 mps 765 mmHg 81%
    05:00 +17°C° 0 mm 4 mps 765 mmHg 81%
    06:00 +18°C° 0 mm 4 mps 765 mmHg 79%
    07:00 +18°C° 0 mm 4 mps 765 mmHg 78%
    08:00 +18°C° 0 mm 4 mps 766 mmHg 76%
    09:00 +20°C° 0 mm 4 mps 766 mmHg 71%
    10:00 +21°C° 0 mm 4 mps 766 mmHg 65%
    11:00 +22°C° 0 mm 4 mps 766 mmHg 59%
    12:00 +23°C° 0 mm 4 mps 765 mmHg 56%
    13:00 +25°C° 0 mm 4 mps 764 mmHg 54%
    14:00 +26°C° 0 mm 4 mps 764 mmHg 51%
    15:00 +25°C° 0 mm 3 mps 763 mmHg 54%
    16:00 +25°C° 0 mm 3 mps 763 mmHg 57%
    17:00 +24°C° 0 mm 3 mps 763 mmHg 60%
    18:00 +22°C° 0 mm 3 mps 764 mmHg 64%
    19:00 +21°C° 0 mm 3 mps 764 mmHg 68%
    20:00 +20°C° 0 mm 3 mps 765 mmHg 72%
    21:00 +20°C° 0 mm 4 mps 765 mmHg 74%
    22:00 +20°C° 0 mm 4 mps 765 mmHg 75%
    23:00 +19°C° 0 mm 4 mps 765 mmHg 76%

    17 December, Monday

    Time Temperature Precipitation Wind Pressure Humidity
    00:00 +19°C° 0 mm 4 mps 764 mmHg 75%
    01:00 +18°C° 0 mm 4 mps 764 mmHg 74%
    02:00 +18°C° 0 mm 4 mps 764 mmHg 73%
    03:00 +17°C° 0 mm 4 mps 764 mmHg 73%
    04:00 +17°C° 0 mm 4 mps 764 mmHg 73%
    05:00 +15°C° 0 mm 4 mps 764 mmHg 73%
    06:00 +15°C° 0 mm 4 mps 765 mmHg 73%
    07:00 +17°C° 0 mm 4 mps 765 mmHg 73%
    08:00 +16°C° 0 mm 5 mps 765 mmHg 73%
    09:00 +17°C° 0 mm 5 mps 766 mmHg 68%
    10:00 +20°C° 0 mm 5 mps 766 mmHg 63%
    11:00 +21°C° 0 mm 5 mps 766 mmHg 58%
    12:00 +22°C° 0 mm 5 mps 765 mmHg 55%
    13:00 +23°C° 0 mm 5 mps 764 mmHg 53%
    14:00 +23°C° 0 mm 5 mps 764 mmHg 50%
    15:00 +23°C° 0 mm 5 mps 764 mmHg 52%
    16:00 +22°C° 0 mm 5 mps 764 mmHg 55%
    17:00 +22°C° 0 mm 5 mps 764 mmHg 57%
    18:00 +21°C° 0 mm 5 mps 764 mmHg 59%
    19:00 +20°C° 0 mm 5 mps 764 mmHg 62%
    20:00 +19°C° 0 mm 5 mps 765 mmHg 64%
    21:00 +19°C° 0 mm 5 mps 765 mmHg 65%
    22:00 +17°C° 0 mm 5 mps 765 mmHg 66%
    23:00 +17°C° 0 mm 5 mps 765 mmHg 66%
    Show more